| time (UTC) | temp C | wind direction | speed KPH | gust KPH | rain 1hr cm | rain 24hr cm | rain mn cm | humidity % | barometer mb |
| 20260502130353 | 11 | 345 | 6.4 | 8.0 | 0.00 | 0.08 | 0.08 | 81 | 1012.7 |
| 20260502123336 | 11 | 278 | 0.0 | 4.8 | 0.00 | 0.08 | 0.08 | 87 | 1012.7 |
| 20260502122833 | 11 | 291 | 3.2 | 3.2 | 0.00 | 0.08 | 0.08 | 88 | 1012.7 |
| 20260502122328 | 11 | 306 | 0.0 | 3.2 | 0.00 | 0.08 | 0.08 | 89 | 1012.6 |
| 20260502121827 | 11 | 242 | 1.6 | 3.2 | 0.00 | 0.08 | 0.08 | 89 | 1012.5 |
| 20260502121324 | 11 | 263 | 1.6 | 4.8 | 0.00 | 0.08 | 0.08 | 89 | 1012.6 |
| 20260502120821 | 11 | 220 | 4.8 | 4.8 | 0.00 | 0.08 | 0.08 | 89 | 1012.7 |
| 20260502120317 | 10 | 253 | 1.6 | 8.0 | 0.00 | 0.08 | 0.08 | 90 | 1012.6 |
| 20260502115815 | 10 | 224 | 6.4 | 9.7 | 0.00 | 0.08 | 0.08 | 90 | 1013.0 |
| 20260502115312 | 10 | 246 | 3.2 | 9.7 | 0.00 | 0.08 | 0.08 | 90 | 1012.6 |
| 20260502114808 | 10 | 251 | 6.4 | 8.0 | 0.00 | 0.08 | 0.08 | 90 | 1012.7 |
| 20260502114305 | 10 | 222 | 4.8 | 8.0 | 0.00 | 0.08 | 0.08 | 90 | 1012.8 |
| 20260502113802 | 10 | 245 | 3.2 | 9.7 | 0.00 | 0.08 | 0.08 | 90 | 1012.7 |
| 20260502113300 | 10 | 235 | 8.0 | 11.3 | 0.00 | 0.08 | 0.08 | 90 | 1012.5 |
| 20260502112758 | 10 | 220 | 6.4 | 8.0 | 0.00 | 0.08 | 0.08 | 90 | 1012.3 |
| 20260502112255 | 10 | 189 | 6.4 | 6.4 | 0.00 | 0.08 | 0.08 | 90 | 1012.3 |
| 20260502111752 | 10 | 217 | 4.8 | 8.0 | 0.05 | 0.08 | 0.08 | 89 | 1012.5 |
| 20260502111250 | 10 | 225 | 4.8 | 8.0 | 0.05 | 0.08 | 0.08 | 89 | 1012.1 |
| 20260502110747 | 10 | 188 | 3.2 | 8.0 | 0.00 | 0.08 | 0.08 | 89 | 1012.0 |
| 20260502110245 | 10 | 200 | 3.2 | 6.4 | 0.18 | 0.08 | 0.08 | 89 | 1012.1 |
| 20260502105743 | 10 | 153 | 3.2 | 4.8 | 0.18 | 0.05 | 0.05 | 89 | 1012.0 |
| 20260502105238 | 10 | 97 | 0.0 | 4.8 | 0.05 | 0.03 | 0.03 | 88 | 1012.2 |
| 20260502104737 | 10 | 197 | 1.6 | 3.2 | 0.18 | 0.03 | 0.03 | 88 | 1012.4 |
| 20260502104234 | 10 | 177 | 1.6 | 4.8 | 0.13 | 0.03 | 0.03 | 87 | 1012.0 |
| 20260502103731 | 10 | 212 | 4.8 | 8.0 | 0.00 | 0.00 | 0.00 | 86 | 1012.2 |
| 20260502103229 | 10 | 210 | 4.8 | 8.0 | 0.00 | 0.00 | 0.00 | 86 | 1012.5 |
| 20260502102725 | 10 | 212 | 4.8 | 9.7 | 0.00 | 0.00 | 0.00 | 85 | 1012.5 |
| 20260502102222 | 10 | 214 | 3.2 | 4.8 | 0.00 | 0.00 | 0.00 | 85 | 1012.1 |
| 20260502101720 | 10 | 251 | 6.4 | 8.0 | 0.00 | 0.00 | 0.00 | 85 | 1012.2 |
| 20260502101218 | 10 | 268 | 6.4 | 8.0 | 0.00 | 0.00 | 0.00 | 85 | 1012.3 |
| 20260502100716 | 10 | 244 | 6.4 | 11.3 | 0.00 | 0.00 | 0.00 | 85 | 1012.4 |
| 20260502100214 | 10 | 214 | 11.3 | 17.7 | 0.00 | 0.00 | 0.00 | 84 | 1012.4 |
| 20260502091148 | 10 | 223 | 4.8 | 9.7 | 0.00 | 0.00 | 0.00 | 83 | 1012.2 |
| 20260502090645 | 10 | 205 | 9.7 | 17.7 | 0.00 | 0.00 | 0.00 | 83 | 1012.0 |
| 20260502090142 | 10 | 212 | 16.1 | 22.5 | 0.00 | 0.00 | 0.00 | 83 | 1012.1 |
| 20260502080105 | 10 | 201 | 9.7 | 12.9 | 0.00 | 0.00 | 0.00 | 85 | 1012.3 |
| 20260502071038 | 10 | 209 | 14.5 | 19.3 | 0.00 | 0.00 | 0.00 | 87 | 1012.3 |
| 20260502070536 | 10 | 226 | 6.4 | 19.3 | 0.00 | 0.00 | 0.00 | 87 | 1012.5 |
| 20260502070033 | 10 | 220 | 8.0 | 19.3 | 0.00 | 0.00 | 0.00 | 87 | 1012.5 |
| 20260502065532 | 10 | 213 | 12.9 | 27.4 | 0.00 | 0.00 | 0.00 | 87 | 1012.4 |
| 20260502065029 | 10 | 241 | 8.0 | 22.5 | 0.00 | 0.00 | 0.00 | 87 | 1012.5 |
| 20260502064527 | 10 | 221 | 12.9 | 17.7 | 0.00 | 0.00 | 0.00 | 86 | 1012.4 |
| 20260502064024 | 10 | 217 | 16.1 | 22.5 | 0.00 | 0.00 | 0.00 | 86 | 1012.4 |
| 20260502063522 | 10 | 208 | 9.7 | 24.1 | 0.00 | 0.00 | 0.00 | 86 | 1012.6 |
| 20260502063020 | 10 | 209 | 27.4 | 29.0 | 0.00 | 0.00 | 0.00 | 86 | 1012.7 |
| 20260502062516 | 10 | 218 | 11.3 | 27.4 | 0.00 | 0.00 | 0.00 | 86 | 1012.3 |
| 20260502062015 | 10 | 207 | 8.0 | 19.3 | 0.00 | 0.00 | 0.00 | 86 | 1012.9 |
| 20260502061512 | 10 | 200 | 9.7 | 24.1 | 0.00 | 0.00 | 0.00 | 86 | 1012.5 |
| 20260502061009 | 10 | 220 | 12.9 | 19.3 | 0.00 | 0.00 | 0.00 | 86 | 1012.7 |
| 20260502060504 | 10 | 216 | 11.3 | 19.3 | 0.00 | 0.00 | 0.00 | 86 | 1013.0 |
| 20260502060001 | 10 | 222 | 8.0 | 20.9 | 0.00 | 0.00 | 0.00 | 86 | 1012.8 |
| 20260502055459 | 10 | 227 | 14.5 | 17.7 | 0.00 | 0.00 | 0.00 | 86 | 1012.6 |
| 20260502054958 | 10 | 226 | 12.9 | 24.1 | 0.00 | 0.00 | 0.00 | 86 | 1013.0 |
| 20260502054455 | 10 | 212 | 11.3 | 24.1 | 0.00 | 0.00 | 0.00 | 85 | 1012.8 |
| 20260502053952 | 10 | 211 | 8.0 | 33.8 | 0.00 | 0.00 | 0.00 | 85 | 1012.6 |
| 20260502053449 | 10 | 191 | 8.0 | 22.5 | 0.00 | 0.00 | 0.00 | 84 | 1012.3 |
| 20260502052947 | 11 | 211 | 9.7 | 16.1 | 0.00 | 0.00 | 0.00 | 84 | 1012.2 |
| 20260502052445 | 11 | 209 | 11.3 | 14.5 | 0.00 | 0.00 | 0.00 | 84 | 1012.4 |
| 20260502051943 | 11 | 231 | 9.7 | 11.3 | 0.00 | 0.00 | 0.00 | 83 | 1012.5 |
| 20260502051441 | 11 | 213 | 9.7 | 14.5 | 0.00 | 0.00 | 0.00 | 82 | 1012.5 |
| 20260502050938 | 11 | 208 | 9.7 | 16.1 | 0.00 | 0.00 | 0.00 | 82 | 1012.5 |
| 20260502050434 | 11 | 212 | 8.0 | 14.5 | 0.00 | 0.00 | 0.00 | 81 | 1012.5 |
| 20260502045932 | 11 | 203 | 8.0 | 17.7 | 0.00 | 0.00 | 0.00 | 80 | 1012.5 |
| 20260502045428 | 11 | 220 | 14.5 | 22.5 | 0.00 | 0.00 | 0.00 | 80 | 1012.7 |
| 20260502044926 | 11 | 197 | 8.0 | 14.5 | 0.00 | 0.00 | 0.00 | 80 | 1012.6 |
| 20260502044421 | 11 | 234 | 8.0 | 9.7 | 0.00 | 0.00 | 0.00 | 79 | 1012.6 |
| 20260502043918 | 11 | 258 | 6.4 | 14.5 | 0.00 | 0.00 | 0.00 | 79 | 1012.8 |
| 20260502043416 | 11 | 252 | 3.2 | 9.7 | 0.00 | 0.00 | 0.00 | 79 | 1012.6 |
| 20260502042915 | 11 | 252 | 4.8 | 8.0 | 0.00 | 0.00 | 0.00 | 80 | 1012.6 |
| 20260502042413 | 11 | 222 | 8.0 | 20.9 | 0.00 | 0.00 | 0.00 | 81 | 1012.8 |
| 20260502041910 | 11 | 226 | 16.1 | 19.3 | 0.00 | 0.00 | 0.00 | 81 | 1012.7 |
| 20260502041408 | 11 | 218 | 14.5 | 27.4 | 0.00 | 0.00 | 0.00 | 80 | 1012.5 |
| 20260502040905 | 11 | 216 | 11.3 | 22.5 | 0.00 | 0.00 | 0.00 | 79 | 1012.7 |
| 20260502040401 | 11 | 225 | 16.1 | 24.1 | 0.00 | 0.00 | 0.00 | 79 | 1012.9 |
| 20260502035857 | 11 | 207 | 11.3 | 27.4 | 0.00 | 0.00 | 0.00 | 78 | 1012.5 |
| 20260502035354 | 11 | 207 | 11.3 | 22.5 | 0.00 | 0.00 | 0.00 | 78 | 1012.8 |
| 20260502034851 | 11 | 217 | 8.0 | 22.5 | 0.00 | 0.00 | 0.00 | 78 | 1012.7 |
| 20260502034350 | 11 | 160 | 3.2 | 20.9 | 0.00 | 0.00 | 0.00 | 78 | 1012.8 |
| 20260502033848 | 11 | 207 | 14.5 | 22.5 | 0.00 | 0.00 | 0.00 | 77 | 1012.5 |
| 20260502033345 | 11 | 211 | 22.5 | 24.1 | 0.00 | 0.00 | 0.00 | 77 | 1012.3 |
| 20260502032841 | 11 | 206 | 9.7 | 19.3 | 0.00 | 0.00 | 0.00 | 76 | 1012.6 |
| 20260502032337 | 11 | 220 | 14.5 | 25.7 | 0.00 | 0.00 | 0.00 | 76 | 1012.6 |
| 20260502031835 | 11 | 199 | 19.3 | 25.7 | 0.00 | 0.00 | 0.00 | 77 | 1012.5 |
| 20260502031334 | 11 | 208 | 9.7 | 29.0 | 0.00 | 0.00 | 0.00 | 78 | 1012.6 |
| 20260502030832 | 11 | 209 | 12.9 | 20.9 | 0.00 | 0.00 | 0.00 | 79 | 1012.8 |
| 20260502030330 | 11 | 224 | 11.3 | 27.4 | 0.00 | 0.00 | 0.00 | 79 | 1012.9 |
| 20260502025826 | 11 | 213 | 9.7 | 25.7 | 0.00 | 0.00 | 0.00 | 79 | 1012.8 |
| 20260502025324 | 11 | 214 | 19.3 | 24.1 | 0.00 | 0.00 | 0.00 | 79 | 1012.8 |
| 20260502024822 | 11 | 182 | 11.3 | 29.0 | 0.00 | 0.00 | 0.00 | 79 | 1013.1 |
| 20260502024319 | 11 | 208 | 17.7 | 32.2 | 0.00 | 0.00 | 0.00 | 79 | 1012.8 |
| 20260502023817 | 11 | 215 | 9.7 | 32.2 | 0.00 | 0.00 | 0.00 | 79 | 1012.8 |
| 20260502023315 | 11 | 193 | 9.7 | 20.9 | 0.00 | 0.00 | 0.00 | 80 | 1012.8 |
| 20260502022813 | 11 | 197 | 12.9 | 29.0 | 0.00 | 0.00 | 0.00 | 80 | 1012.6 |
| 20260502022308 | 10 | 199 | 17.7 | 22.5 | 0.00 | 0.00 | 0.00 | 80 | 1012.7 |
| 20260502021805 | 11 | 188 | 17.7 | 29.0 | 0.00 | 0.00 | 0.00 | 80 | 1012.7 |
| 20260502021303 | 10 | 180 | 20.9 | 25.7 | 0.00 | 0.00 | 0.00 | 79 | 1012.8 |
| 20260502020800 | 11 | 198 | 14.5 | 24.1 | 0.00 | 0.00 | 0.00 | 80 | 1012.8 |
| 20260502020257 | 10 | 197 | 16.1 | 24.1 | 0.00 | 0.00 | 0.00 | 79 | 1012.5 |
| 20260502015755 | 11 | 199 | 11.3 | 29.0 | 0.00 | 0.00 | 0.00 | 79 | 1012.5 |
| 20260502015251 | 11 | 189 | 14.5 | 27.4 | 0.00 | 0.00 | 0.00 | 79 | 1012.8 |
| 20260502014748 | 11 | 206 | 11.3 | 27.4 | 0.00 | 0.00 | 0.00 | 79 | 1012.6 |
| 20260502014245 | 11 | 204 | 19.3 | 25.7 | 0.00 | 0.00 | 0.00 | 79 | 1012.7 |
| 20260502013741 | 11 | 202 | 14.5 | 32.2 | 0.00 | 0.00 | 0.00 | 78 | 1012.5 |
| 20260502013237 | 11 | 218 | 12.9 | 30.6 | 0.00 | 0.00 | 0.00 | 78 | 1012.6 |
| 20260502012734 | 11 | 193 | 14.5 | 27.4 | 0.00 | 0.00 | 0.00 | 78 | 1012.6 |
| 20260502012232 | 11 | 184 | 17.7 | 22.5 | 0.00 | 0.00 | 0.00 | 78 | 1012.3 |
| 20260502011729 | 11 | 211 | 12.9 | 30.6 | 0.00 | 0.00 | 0.00 | 78 | 1012.5 |
| 20260502011225 | 11 | 185 | 11.3 | 32.2 | 0.00 | 0.00 | 0.00 | 77 | 1012.7 |
| 20260502010723 | 11 | 190 | 24.1 | 25.7 | 0.00 | 0.00 | 0.00 | 76 | 1012.2 |
| 20260502010218 | 11 | 201 | 17.7 | 29.0 | 0.00 | 0.00 | 0.00 | 76 | 1012.2 |
| 20260502005716 | 11 | 194 | 24.1 | 27.4 | 0.00 | 0.00 | 0.00 | 76 | 1012.4 |
| 20260502005214 | 11 | 193 | 19.3 | 27.4 | 0.00 | 0.00 | 0.00 | 75 | 1012.3 |
| 20260502004710 | 11 | 187 | 19.3 | 27.4 | 0.00 | 0.00 | 0.00 | 73 | 1012.4 |
| 20260502004206 | 11 | 195 | 12.9 | 27.4 | 0.00 | 0.00 | 0.00 | 73 | 1012.2 |
| 20260502003704 | 11 | 176 | 14.5 | 20.9 | 0.00 | 0.00 | 0.00 | 74 | 1012.5 |
| 20260502003201 | 11 | 201 | 9.7 | 20.9 | 0.00 | 0.00 | 0.00 | 76 | 1012.4 |
| 20260502002657 | 11 | 212 | 11.3 | 19.3 | 0.00 | 0.00 | 0.00 | 76 | 1012.2 |
| 20260502002155 | 11 | 208 | 11.3 | 22.5 | 0.00 | 0.00 | 0.00 | 75 | 1012.2 |
| 20260502001652 | 11 | 191 | 14.5 | 24.1 | 0.00 | 0.00 | 0.00 | 74 | 1012.2 |
| 20260502001149 | 11 | 194 | 12.9 | 27.4 | 0.00 | 0.00 | 0.00 | 75 | 1012.0 |
| 20260502000647 | 11 | 186 | 16.1 | 24.1 | 0.00 | 0.00 | 0.00 | 76 | 1011.9 |
| 20260502000145 | 11 | 200 | 14.5 | 25.7 | 0.00 | 0.00 | 0.00 | 76 | 1011.8 |
| 20260501235641 | 11 | 217 | 14.5 | 24.1 | 0.00 | 0.00 | 0.00 | 77 | 1011.8 |
| 20260501235137 | 11 | 181 | 24.1 | 24.1 | 0.00 | 0.00 | 0.00 | 77 | 1011.8 |
| 20260501234632 | 11 | 181 | 19.3 | 24.1 | 0.00 | 0.00 | 0.00 | 77 | 1011.8 |
| 20260501234130 | 11 | 195 | 9.7 | 24.1 | 0.00 | 0.00 | 0.00 | 78 | 1011.7 |
| 20260501233628 | 11 | 187 | 14.5 | 27.4 | 0.00 | 0.00 | 0.00 | 77 | 1011.8 |
| 20260501233125 | 11 | 200 | 17.7 | 29.0 | 0.00 | 0.00 | 0.00 | 77 | 1011.8 |
| 20260501232621 | 11 | 203 | 8.0 | 22.5 | 0.00 | 0.00 | 0.00 | 77 | 1011.7 |
| 20260501232118 | 11 | 186 | 20.9 | 27.4 | 0.00 | 0.00 | 0.00 | 75 | 1011.7 |
| 20260501231616 | 11 | 192 | 19.3 | 30.6 | 0.00 | 0.00 | 0.00 | 74 | 1011.8 |
| 20260501231114 | 11 | 200 | 22.5 | 30.6 | 0.00 | 0.00 | 0.00 | 74 | 1011.3 |
| 20260501230612 | 11 | 187 | 24.1 | 29.0 | 0.00 | 0.00 | 0.00 | 73 | 1011.7 |
| 20260501230110 | 11 | 192 | 14.5 | 27.4 | 0.00 | 0.00 | 0.00 | 73 | 1011.6 |
| 20260501225607 | 11 | 188 | 20.9 | 29.0 | 0.00 | 0.00 | 0.00 | 72 | 1011.5 |
| 20260501225103 | 11 | 189 | 14.5 | 29.0 | 0.00 | 0.00 | 0.00 | 72 | 1011.7 |
| 20260501224601 | 11 | 192 | 12.9 | 32.2 | 0.00 | 0.00 | 0.00 | 72 | 1011.6 |
| 20260501224057 | 11 | 182 | 14.5 | 35.4 | 0.00 | 0.00 | 0.00 | 72 | 1011.6 |
| 20260501223554 | 11 | 189 | 17.7 | 35.4 | 0.00 | 0.00 | 0.00 | 72 | 1011.4 |
| 20260501223050 | 11 | 211 | 16.1 | 32.2 | 0.00 | 0.00 | 0.00 | 73 | 1011.7 |
| 20260501222547 | 11 | 203 | 17.7 | 30.6 | 0.00 | 0.00 | 0.00 | 73 | 1011.8 |
| 20260501222044 | 11 | 194 | 16.1 | 25.7 | 0.00 | 0.00 | 0.00 | 74 | 1011.7 |
| 20260501221540 | 12 | 203 | 17.7 | 24.1 | 0.00 | 0.00 | 0.00 | 74 | 1011.9 |
| 20260501221038 | 11 | 202 | 12.9 | 30.6 | 0.00 | 0.00 | 0.00 | 74 | 1011.6 |
| 20260501220536 | 12 | 193 | 14.5 | 29.0 | 0.00 | 0.00 | 0.00 | 74 | 1011.8 |
| 20260501220032 | 12 | 183 | 27.4 | 30.6 | 0.00 | 0.00 | 0.00 | 73 | 1011.7 |
| 20260501215528 | 12 | 194 | 14.5 | 32.2 | 0.00 | 0.00 | 0.00 | 73 | 1011.6 |
| 20260501215024 | 12 | 214 | 19.3 | 33.8 | 0.00 | 0.00 | 0.00 | 72 | 1011.6 |
| 20260501214519 | 12 | 190 | 17.7 | 29.0 | 0.00 | 0.00 | 0.00 | 72 | 1011.8 |
| 20260501214015 | 12 | 180 | 25.7 | 35.4 | 0.00 | 0.00 | 0.00 | 71 | 1011.6 |
| 20260501213513 | 12 | 196 | 16.1 | 29.0 | 0.00 | 0.00 | 0.00 | 71 | 1011.6 |
| 20260501213009 | 12 | 198 | 17.7 | 40.2 | 0.00 | 0.00 | 0.00 | 69 | 1011.7 |
| 20260501212504 | 12 | 175 | 12.9 | 29.0 | 0.00 | 0.00 | 0.00 | 69 | 1011.6 |
| 20260501212002 | 12 | 192 | 14.5 | 32.2 | 0.00 | 0.00 | 0.00 | 69 | 1011.6 |
| 20260501211459 | 12 | 192 | 19.3 | 33.8 | 0.00 | 0.00 | 0.00 | 68 | 1011.7 |
| 20260501210956 | 12 | 213 | 12.9 | 29.0 | 0.00 | 0.00 | 0.00 | 67 | 1011.7 |
| 20260501210453 | 12 | 207 | 12.9 | 29.0 | 0.00 | 0.00 | 0.00 | 65 | 1011.6 |
| 20260501205949 | 12 | 209 | 14.5 | 27.4 | 0.00 | 0.00 | 0.00 | 65 | 1011.4 |
| 20260501205446 | 12 | 204 | 12.9 | 30.6 | 0.00 | 0.00 | 0.00 | 65 | 1011.6 |
| 20260501204944 | 12 | 198 | 14.5 | 30.6 | 0.00 | 0.00 | 0.00 | 63 | 1011.5 |
| 20260501204439 | 12 | 203 | 9.7 | 38.6 | 0.00 | 0.00 | 0.00 | 63 | 1011.6 |
| 20260501203936 | 13 | 192 | 19.3 | 33.8 | 0.00 | 0.00 | 0.00 | 62 | 1011.6 |
| 20260501203433 | 13 | 190 | 22.5 | 25.7 | 0.00 | 0.00 | 0.00 | 62 | 1011.5 |
| 20260501202930 | 13 | 193 | 17.7 | 24.1 | 0.00 | 0.00 | 0.00 | 61 | 1011.5 |
| 20260501202427 | 13 | 212 | 16.1 | 33.8 | 0.00 | 0.00 | 0.00 | 62 | 1011.5 |
| 20260501201923 | 14 | 187 | 16.1 | 25.7 | 0.00 | 0.00 | 0.00 | 57 | 1011.4 |
| 20260501201420 | 14 | 199 | 17.7 | 25.7 | 0.00 | 0.00 | 0.00 | 54 | 1011.5 |
| 20260501200917 | 14 | 186 | 11.3 | 25.7 | 0.00 | 0.00 | 0.00 | 57 | 1011.4 |
| 20260501200414 | 15 | 184 | 14.5 | 24.1 | 0.00 | 0.00 | 0.00 | 58 | 1011.5 |
| 20260501195912 | 15 | 185 | 19.3 | 25.7 | 0.00 | 0.00 | 0.00 | 55 | 1011.3 |
| 20260501195408 | 15 | 200 | 16.1 | 25.7 | 0.00 | 0.00 | 0.00 | 54 | 1011.4 |
| 20260501194904 | 14 | 178 | 14.5 | 25.7 | 0.00 | 0.00 | 0.00 | 55 | 1011.3 |
| 20260501194400 | 15 | 183 | 19.3 | 22.5 | 0.00 | 0.00 | 0.00 | 57 | 1011.6 |
| 20260501193856 | 15 | 195 | 9.7 | 30.6 | 0.00 | 0.00 | 0.00 | 55 | 1011.3 |
| 20260501193355 | 14 | 182 | 12.9 | 24.1 | 0.00 | 0.00 | 0.00 | 57 | 1011.7 |
| 20260501192852 | 15 | 187 | 19.3 | 24.1 | 0.00 | 0.00 | 0.00 | 58 | 1011.4 |
| 20260501192349 | 15 | 201 | 9.7 | 30.6 | 0.00 | 0.00 | 0.00 | 60 | 1011.5 |
| 20260501191846 | 16 | 195 | 8.0 | 33.8 | 0.00 | 0.00 | 0.00 | 47 | 1011.7 |
| 20260501191343 | 16 | 245 | 12.9 | 20.9 | 0.00 | 0.00 | 0.00 | 44 | 1011.6 |
| 20260501190840 | 16 | 213 | 12.9 | 22.5 | 0.00 | 0.00 | 0.00 | 46 | 1011.7 |
| 20260501190336 | 16 | 243 | 17.7 | 27.4 | 0.00 | 0.00 | 0.00 | 44 | 1011.6 |
| 20260501185831 | 16 | 233 | 16.1 | 24.1 | 0.00 | 0.00 | 0.00 | 44 | 1011.8 |
| 20260501185327 | 16 | 221 | 17.7 | 20.9 | 0.00 | 0.00 | 0.00 | 44 | 1011.9 |
| 20260501184823 | 16 | 218 | 12.9 | 22.5 | 0.00 | 0.00 | 0.00 | 47 | 1012.0 |
| 20260501184319 | 16 | 236 | 9.7 | 22.5 | 0.00 | 0.00 | 0.00 | 45 | 1012.2 |
| 20260501183815 | 15 | 224 | 11.3 | 29.0 | 0.00 | 0.00 | 0.00 | 47 | 1012.0 |
| 20260501183313 | 15 | 206 | 9.7 | 25.7 | 0.00 | 0.00 | 0.00 | 48 | 1012.2 |
| 20260501182809 | 15 | 212 | 12.9 | 20.9 | 0.00 | 0.00 | 0.00 | 47 | 1012.0 |
| 20260501182306 | 15 | 203 | 20.9 | 29.0 | 0.00 | 0.00 | 0.00 | 49 | 1012.1 |
| 20260501181802 | 15 | 211 | 14.5 | 24.1 | 0.00 | 0.00 | 0.00 | 49 | 1012.1 |
| 20260501181300 | 15 | 233 | 11.3 | 29.0 | 0.00 | 0.00 | 0.00 | 48 | 1012.3 |
| 20260501180757 | 15 | 217 | 19.3 | 27.4 | 0.00 | 0.00 | 0.00 | 48 | 1012.2 |
| 20260501180253 | 15 | 228 | 22.5 | 30.6 | 0.00 | 0.00 | 0.00 | 48 | 1011.9 |
| 20260501175750 | 15 | 216 | 14.5 | 22.5 | 0.00 | 0.00 | 0.00 | 47 | 1012.3 |
| 20260501175247 | 15 | 215 | 12.9 | 20.9 | 0.00 | 0.00 | 0.00 | 48 | 1012.1 |
| 20260501174743 | 15 | 193 | 9.7 | 19.3 | 0.00 | 0.00 | 0.00 | 50 | 1012.2 |
| 20260501174241 | 14 | 212 | 20.9 | 27.4 | 0.00 | 0.00 | 0.00 | 52 | 1012.0 |
| 20260501173739 | 14 | 202 | 19.3 | 32.2 | 0.00 | 0.00 | 0.00 | 52 | 1012.1 |
| 20260501173236 | 15 | 213 | 16.1 | 27.4 | 0.00 | 0.00 | 0.00 | 49 | 1012.2 |
| 20260501172731 | 15 | 220 | 20.9 | 24.1 | 0.00 | 0.00 | 0.00 | 50 | 1012.2 |
| 20260501172227 | 14 | 225 | 17.7 | 30.6 | 0.00 | 0.00 | 0.00 | 50 | 1012.1 |
| 20260501171723 | 14 | 220 | 8.0 | 25.7 | 0.00 | 0.00 | 0.00 | 55 | 1012.2 |
| 20260501171220 | 14 | 207 | 11.3 | 24.1 | 0.00 | 0.00 | 0.00 | 52 | 1012.5 |
| 20260501170717 | 13 | 208 | 12.9 | 27.4 | 0.00 | 0.00 | 0.00 | 54 | 1012.6 |
| 20260501170214 | 14 | 194 | 8.0 | 24.1 | 0.00 | 0.00 | 0.00 | 52 | 1012.5 |
| 20260501165711 | 14 | 173 | 11.3 | 25.7 | 0.00 | 0.00 | 0.00 | 53 | 1012.3 |
| 20260501165208 | 13 | 211 | 17.7 | 24.1 | 0.00 | 0.00 | 0.00 | 55 | 1012.3 |
| 20260501164706 | 14 | 214 | 16.1 | 24.1 | 0.00 | 0.00 | 0.00 | 51 | 1012.3 |
| 20260501164203 | 15 | 250 | 6.4 | 20.9 | 0.00 | 0.00 | 0.00 | 39 | 1012.5 |
| 20260501163659 | 16 | 266 | 6.4 | 12.9 | 0.00 | 0.00 | 0.00 | 39 | 1012.7 |
| 20260501163156 | 15 | 340 | 4.8 | 17.7 | 0.00 | 0.00 | 0.00 | 41 | 1012.8 |
| 20260501162652 | 16 | 341 | 6.4 | 16.1 | 0.00 | 0.00 | 0.00 | 39 | 1012.7 |
| 20260501162149 | 15 | 229 | 6.4 | 19.3 | 0.00 | 0.00 | 0.00 | 38 | 1012.8 |
| 20260501161646 | 15 | 300 | 17.7 | 20.9 | 0.00 | 0.00 | 0.00 | 38 | 1012.9 |
| 20260501161143 | 15 | 302 | 8.0 | 11.3 | 0.00 | 0.00 | 0.00 | 38 | 1013.0 |
| 20260501160640 | 15 | 306 | 6.4 | 14.5 | 0.00 | 0.00 | 0.00 | 41 | 1012.9 |
| 20260501160137 | 15 | 320 | 4.8 | 8.0 | 0.00 | 0.00 | 0.00 | 40 | 1013.1 |
| 20260501155634 | 15 | 356 | 3.2 | 17.7 | 0.00 | 0.00 | 0.00 | 39 | 1013.0 |
| 20260501155131 | 15 | 269 | 8.0 | 9.7 | 0.00 | 0.00 | 0.00 | 38 | 1013.3 |
| 20260501154628 | 15 | 315 | 11.3 | 16.1 | 0.00 | 0.00 | 0.00 | 39 | 1013.4 |
| 20260501154125 | 15 | 275 | 4.8 | 19.3 | 0.00 | 0.00 | 0.00 | 38 | 1013.2 |
| 20260501153623 | 15 | 297 | 6.4 | 9.7 | 0.00 | 0.00 | 0.00 | 41 | 1013.2 |
| 20260501153120 | 13 | 209 | 6.4 | 12.9 | 0.00 | 0.00 | 0.00 | 42 | 1013.2 |
| 20260501152616 | 15 | 356 | 4.8 | 11.3 | 0.00 | 0.00 | 0.00 | 43 | 1013.3 |
| 20260501152113 | 15 | 328 | 8.0 | 19.3 | 0.00 | 0.00 | 0.00 | 41 | 1013.2 |
| 20260501151610 | 14 | 283 | 11.3 | 12.9 | 0.00 | 0.00 | 0.00 | 42 | 1013.3 |
| 20260501151107 | 15 | 247 | 6.4 | 11.3 | 0.00 | 0.00 | 0.00 | 41 | 1013.4 |
| 20260501150602 | 14 | 282 | 4.8 | 11.3 | 0.00 | 0.00 | 0.00 | 43 | 1013.1 |
| 20260501150059 | 13 | 326 | 9.7 | 25.7 | 0.00 | 0.00 | 0.00 | 42 | 1013.3 |
| 20260501145555 | 14 | 350 | 9.7 | 14.5 | 0.00 | 0.00 | 0.00 | 43 | 1013.3 |
| 20260501145053 | 14 | 342 | 6.4 | 16.1 | 0.00 | 0.00 | 0.00 | 44 | 1013.2 |
| 20260501144549 | 13 | 263 | 6.4 | 12.9 | 0.00 | 0.00 | 0.00 | 43 | 1013.1 |
| 20260501144044 | 13 | 304 | 3.2 | 17.7 | 0.00 | 0.00 | 0.00 | 44 | 1013.0 |
| 20260501143541 | 13 | 3 | 14.5 | 14.5 | 0.00 | 0.00 | 0.00 | 44 | 1013.1 |
| 20260501143038 | 13 | 318 | 9.7 | 19.3 | 0.00 | 0.00 | 0.00 | 45 | 1013.2 |
| 20260501142535 | 13 | 322 | 4.8 | 16.1 | 0.00 | 0.00 | 0.00 | 45 | 1013.3 |
| 20260501142031 | 13 | 297 | 9.7 | 14.5 | 0.00 | 0.00 | 0.00 | 46 | 1013.1 |